This is the latest recevied weather packets stored in our database for station/object WP3OF-1. If no packets are shown the sender has not sent any weather packets the latest 1 day(s).
| Time | Temp. | Humidity | Pressure | Rain* | Wind** | Luminosity | Snow |
|---|---|---|---|---|---|---|---|
| 1777962719 | 25° C | 92% | 1016.3 hPa | 0 mm | 3.58 m/s, 111° | - | - |
| 1777962415 | 24.44° C | 92% | 1016.3 hPa | 0 mm | 3.58 m/s, 101° | - | - |
| 1777962113 | 24.44° C | 92% | 1016.3 hPa | 0 mm | 4.02 m/s, 106° | - | - |
| 1777961810 | 24.44° C | 92% | 1016.4 hPa | 0 mm | 3.58 m/s, 90° | - | - |
| 1777961508 | 24.44° C | 92% | 1016.4 hPa | 0 mm | 2.68 m/s, 104° | - | - |
| 1777961205 | 24.44° C | 92% | 1016.5 hPa | 0 mm | 4.02 m/s, 83° | - | - |
| 1777960902 | 25° C | 92% | 1016.5 hPa | 0 mm | 4.02 m/s, 107° | - | - |
| 1777960597 | 25° C | 93% | 1016.7 hPa | 0 mm | 4.02 m/s, 85° | - | - |
| 1777960294 | 24.44° C | 93% | 1016.7 hPa | 0 mm | 3.58 m/s, 94° | - | - |
| 1777959991 | 25° C | 93% | 1016.8 hPa | 0 mm | 4.02 m/s, 97° | - | - |
| 1777959689 | 25° C | 93% | 1016.6 hPa | 0 mm | 4.02 m/s, 84° | - | - |
| 1777959386 | 25° C | 93% | 1016.8 hPa | 0 mm | 4.47 m/s, 93° | - | - |
| 1777959083 | 25° C | 93% | 1017.1 hPa | 0 mm | 4.47 m/s, 87° | - | - |
| 1777958780 | 25° C | 93% | 1017 hPa | 0 mm | 4.92 m/s, 80° | - | - |
| 1777958477 | 24.44° C | 93% | 1017 hPa | 0 mm | 5.36 m/s, 96° | - | - |
| 1777958174 | 24.44° C | 93% | 1017.2 hPa | 0 mm | 4.02 m/s, 96° | - | - |
| 1777957872 | 25° C | 93% | 1017.1 hPa | 0 mm | 2.68 m/s, 92° | - | - |
| 1777957570 | 25° C | 92% | 1017.5 hPa | 0 mm | 3.58 m/s, 90° | - | - |
| 1777957268 | 24.44° C | 93% | 1017.2 hPa | 0 mm | 4.92 m/s, 109° | - | - |
| 1777956963 | 24.44° C | 93% | 1017.3 hPa | 0 mm | 4.92 m/s, 109° | - | - |
| 1777956661 | 24.44° C | 93% | 1017.1 hPa | 0 mm | 4.92 m/s, 99° | - | - |
| 1777956358 | 25° C | 93% | 1017.2 hPa | 0 mm | 4.02 m/s, 88° | - | - |
| 1777956054 | 25° C | 93% | 1017.3 hPa | 0 mm | 3.58 m/s, 113° | - | - |
| 1777955750 | 25° C | 93% | 1017.3 hPa | 0 mm | 4.02 m/s, 81° | - | - |
| 1777955447 | 25° C | 93% | 1017.3 hPa | 0 mm | 4.02 m/s, 83° | - | - |
* Rain latest hour (hover to see other rain measurements)
** Current wind speed in m/s (hover to see current wind gust speed)